www.pogodaiklimat.ru
ПОГОДА в Глазго
Время
и дата
03:15 07.02
03:35 07.02
03:55 07.02
04:15 07.02
04:35 07.02
04:55 07.02
05:15 07.02
05:35 07.02
05:55 07.02
06:15 07.02
06:35 07.02
06:55 07.02
07:15 07.02
07:35 07.02
07:55 07.02
08:15 07.02
08:35 07.02
08:55 07.02
09:15 07.02
09:35 07.02
09:55 07.02
10:15 07.02
10:35 07.02
10:55 07.02
11:15 07.02
11:35 07.02
11:55 07.02
12:15 07.02
12:35 07.02
12:55 07.02
13:15 07.02
13:35 07.02
13:55 07.02
14:35 07.02
14:55 07.02
15:15 07.02
15:35 07.02
15:55 07.02
16:15 07.02
16:35 07.02
16:55 07.02
17:15 07.02
17:35 07.02
17:55 07.02
18:15 07.02
18:35 07.02
18:55 07.02
19:15 07.02
Ветер
(напр.,м/с)
Видим. Явления Облачность Т
(С)
Тd
(С)
f
(%)
Тe
(С)
Тes
(С)
Комфортность P
(гПа)
Po
(гПа)
Тmin
(С)
Tmax
(С)
R
(мм)
R24
(мм)
S
(см)
штиль 0 16 км ясно +7.8 -0.5 56 +7 +7 994.1
штиль 0 16 км ясно +5.9 -0.5 63 +5 +5 994.1
штиль 0 16 км ясно +8.0 -0.5 55 +8 +8 994.4
Ю 2 16 км ясно +8.6 -0.4 53 +7 +7 994.4
Ю 2 16 км ясно +8.9 -0.3 52 +8 +8 994.1
Ю 2 16 км ясно +8.8 -0.1 54 +7 +7 994.4
Ю 2 16 км ясно +9.0 -0.1 53 +8 +8 994.8
Ю 2 16 км ясно +9.1 0.0 53 +8 +8 994.4
Ю 3 16 км ясно +9.1 0.0 53 +7 +7 994.8 +5.9 +10.0
Ю 3 16 км ясно +9.2 0.0 53 +7 +7 995.1
Ю 3 16 км ясно +9.1 0.0 53 +7 +7 995.1
Ю 3 16 км ясно +9.5 +0.1 52 +8 +8 995.4
Ю 4 16 км ясно +10.1 +0.3 51 +8 +8 995.7
Ю 5 16 км ясно +11.0 +0.6 49 +9 +9 995.7
Ю 4 16 км ясно +11.4 +0.9 48 +10 +10 996.1
Ю 4 16 км ясно +11.7 +1.0 48 +10 +11 995.7
ЮЗ 3 16 км ясно +13.0 +1.8 46 +12 +13 996.1
Ю 5
{8}
16 км ясно +14.6 +2.4 44 +13 +14 996.4
Ю 5
{9}
16 км ясно +15.1 +3.0 44 +14 +16 996.7
Ю 5
{8}
16 км ясно +15.2 +3.4 45 +14 +16 996.4
ЮЗ 6
{9}
16 км ясно +16.0 +4.3 46 +15 +16 996.4
ЮЗ 6
{9}
16 км ясно +15.0 +5.1 52 +13 +16 996.7
ЮЗ 5
{7}
16 км ясно +15.9 +6.3 53 +15 +18 996.4
ЮЗ 6
{10}
16 км ясно +16.9 +7.4 53 +16 +18 996.1
ЮЗ 8
{10}
16 км ясно +17.6 +7.4 51 +17 +18 996.1
ЮЗ 7
{10}
16 км ясно +17.9 +8.0 52 +17 +19 995.7
ЮЗ 8
{10}
16 км ясно +17.3 +8.0 54 +16 +18 995.7 +9.0 +18.5
ЮЗ 6
{9}
16 км ясно +17.6 +8.3 54 +17 +20 995.4
ЮЗ 6
{11}
16 км ясно +18.2 +8.4 53 +18 +21 995.4
ЮЗ 9
{11}
16 км ясно +18.0 +8.5 54 +17 +18 995.1
ЮЗ 7
{9}
16 км ясно +18.0 +8.5 54 +17 +19 995.1
ЮЗ 6
{9}
16 км 5/5 1380 м +17.8 +8.4 54 +17 +19 994.8
ЮЗ 4
{9}
16 км 5/5 1380 м +17.9 +8.3 53 +18 +20 994.8
ЮЗ 6 16 км 5/5 1380 м +18.1 +8.6 54 +18 +19 994.4
ЮЗ 6
{7}
16 км 5/5 1440 м +18.0 +8.7 55 +17 +18 994.4
ЮЗ 5 16 км 5/5 1470 м +18.1 +8.9 55 +18 +19 994.4
ЮЗ 4 16 км 5/5 1470 м +18.0 +9.0 56 +18 +19 994.4
ЮЗ 4
{9}
16 км 5/5 1470 м +18.0 +8.9 55 +18 +19 994.8
ЮЗ 4 16 км ясно +17.7 +9.0 57 +17 +18 994.8
ЮЗ 3 16 км ясно +17.2 +9.2 59 +17 +18 995.1
ЮЗ 3 16 км ясно +17.2 +9.3 60 +17 +18 995.1
ЮЗ 3 16 км 5/5 1410 м +16.7 +9.4 62 +17 +17 995.1
ЮЗ 2 16 км 5/5 1410 м +16.1 +9.4 64 +16 +16 995.4
ЮЗ 2 16 км 8/8 1440 м +15.6 +9.3 66 +16 +16 995.7 +15.6 +18.6
штиль 0 16 км 8/8 1440 м +15.0 +9.4 69 +15 +15 996.1
штиль 0 16 км 10/10 1380 м +15.5 +9.5 67 +15 +15 996.1
штиль 0 16 км 10/10 1380 м +15.1 +9.5 69 +15 +15 996.1
штиль 0 16 км 5/5 1380 м +13.9 +9.5 75 +14 +14 996.1
Местоположение метеостанции Glasgow Municipal Airport: широта 37.0317 долгота -85.9536 высота над уровнем моря 218 м.
В архиве по умолчанию представлена погода в Глазго за последние 1-2 суток. Обновление информации о фактической погоде в базе происходит ежечасно! Архивные данные за месяц целиком и за предыдущие месяцы Вы можете получить, выбрав интересующий диапазон дат из раскрывающегося списка и нажав кнопку "Ввод!".
Внимание! Архив погоды МЕТАР в базе сайта по станциям, не включенным в климатический монитор, хранится не более 60 дней. Нет смысла пытаться выбрать более раннюю дату.
*Определитесь, кто Вы:
Внимание! Время в таблицах - местное (без учета летнего времени). Для получения всемирного времени необходимо вычесть поправку, которая равна -6 ч.
Смотрите также архив погоды в соседних городах и на ближайших метеорологических станциях:
Партнеры нашего сайта:      
Пояснения к столбцам:
  • Ветер - указаны скорость ветра в м/с - средняя за 10 мин, порывы в срок и между сроками (в фигурных скобках) и направление, откуда дует ветер: С - северный,
  • СВ - северо-восточный, В - восточный, ЮВ - юго-восточный, Ю - южный, ЮЗ - юго-западный, З - западный, СЗ - северо-западный.
  • Видимость - горизонтальная дальность видимости в метрах или километрах. При видимости от 1 до 10 км при отсутствии осадков обычно наблюдается дымка, при ухудшении видимости до 1 км и менее - туман. В сухую погоду видимость может ухудшаться дымом, пылью или мглою.
  • Явления - указаны атмосферные явления, наблюдавшиеся в срок или в последний час перед сроком; фигурными скобками обозначены явления, наблюдавшиеся между сроками (за 1-3 часа до срока); квадратными скобками обозначены град или гололедные отложения с указанием их диаметра в мм.
  • Облачность - указаны через наклонную черту общая и нижняя облачность в баллах и высота нижней границы облаков в метрах; квадратными скобками обозначены формы облаков: Ci - перистые, Cs - перисто-слоистые, Cc - перисто-кучевые, Ac - высококучевые, As - высокослоистые, Sc - слоисто-кучевые, Ns - слоисто-дождевые, Cu - кучевые, Cb - кучево-дождевые. Подробнее классификацию облаков см. в Атласе облаков (PDF).
  • T - Температура воздуха - температура, измеренная на высоте 2 м над землей.
  • Td - Температура точки росы - температура, при понижении до которой содержащийся в воздухе водяной пар достигнет насыщения.
  • f - Относительная влажность воздуха - влажноcть воздуха, измеренная на высоте 2 м над землей.
  • Te - Эффективная температура - температура, которую ощущает одетый по сезону человек в тени. Характеристика душности погоды. При расчете учитывается влияние влажности воздуха и скорости ветра на теплоощущения человека.
  • Tes - Эффективная температура на солнце - температура, которую ощущает человек, с поправкой на солнечный нагрев. Характеристика знойности погоды. Зависит от высоты солнца над горизонтом, облачности и скорости ветра. Ночью, в пасмурную погоду, а также при ветре 12 м/с и более поправка равна нулю.
  • P - Атмосферное давление - приведенное к уровню моря атмосферное давление.
  • Po - Атмосферное давление - измеренное на уровне метеостанции атмосферное давление.
  • Tmin - Минимальная температура - минимум температуры воздуха на высоте 2 м над землей.
  • Tmax - Максимальная температура - максимум температуры воздуха на высоте 2 м над землей.
  • R - Количество осадков - Количество выпавших осадков за период времени, мм. При наведении курсора мыши на число - период времени, за который выпало указанное количество осадков.
  • R24 - Количество осадков - Количество выпавших осадков за 24 часа, мм.
  • S - Снежный покров - Высота снежного покрова, см. При наведении курсора мыши на число - состояние снежного покрова и степень покрытия местности в баллах.